This is the latest recevied weather packets stored in our database for station/object SP5XSL-4. If no packets are shown the sender has not sent any weather packets the latest 1 day(s).
| Time | Temp. | Humidity | Pressure | Rain* | Wind** | Luminosity | Snow |
|---|---|---|---|---|---|---|---|
| 1777955311 | 12.78° C | - | 1017.7 hPa | - | 0 m/s | - | - |
| 1777954759 | 12.22° C | - | 1017.8 hPa | - | 0 m/s | - | - |
| 1777954152 | 12.22° C | - | 1017.6 hPa | - | 0 m/s | - | - |
| 1777953521 | 12.22° C | - | 1017.6 hPa | - | 0 m/s | - | - |
| 1777952979 | 12.22° C | - | 1017.8 hPa | - | 0 m/s | - | - |
| 1777952369 | 12.22° C | - | 1017.8 hPa | - | 0 m/s | - | - |
| 1777951839 | 12.22° C | - | 1017.6 hPa | - | 0 m/s | - | - |
| 1777951259 | 12.22° C | - | 1018.1 hPa | - | 0 m/s | - | - |
| 1777950729 | 12.22° C | - | 1017.7 hPa | - | 0 m/s | - | - |
| 1777950152 | 12.22° C | - | 1017.9 hPa | - | 0 m/s | - | - |
| 1777949601 | 11.67° C | - | 1017.8 hPa | - | 0 m/s | - | - |
| 1777949071 | 11.67° C | - | 1017.6 hPa | - | 0 m/s | - | - |
| 1777948519 | 11.67° C | - | 1017.6 hPa | - | 0 m/s | - | - |
| 1777947912 | 12.22° C | - | 1017.4 hPa | - | 0 m/s | - | - |
| 1777947369 | 12.22° C | - | 1017.6 hPa | - | 0 m/s | - | - |
| 1777946839 | 11.67° C | - | 1017.8 hPa | - | 0 m/s | - | - |
| 1777946272 | 11.67° C | - | 1017.8 hPa | - | 0 m/s | - | - |
| 1777945731 | 12.22° C | - | 1017.7 hPa | - | 0 m/s | - | - |
| 1777945249 | 12.78° C | - | 1018 hPa | - | 0 m/s | - | - |
| 1777944689 | 13.33° C | - | 1018.2 hPa | - | 0 m/s | - | - |
| 1777944112 | 13.33° C | - | 1017.9 hPa | - | 0 m/s | - | - |
| 1777943529 | 13.89° C | - | 1018 hPa | - | 0 m/s | - | - |
| 1777942999 | 13.89° C | - | 1018 hPa | - | 0 m/s | - | - |
| 1777942411 | 13.89° C | - | 1018.1 hPa | - | 0.89 m/s, 157° | - | - |
| 1777941852 | 14.44° C | - | 1017.9 hPa | - | 1.79 m/s, 114° | - | - |
* Rain since midnight (hover to see other rain measurements)
** Current wind speed in m/s (hover to see current wind gust speed)